Location: Piolenc
(44.1794°N, 4.7641°E)
Time: 03:51:30
(UTC+00:00)

NOSS 3-2 (A) - Pass Details

Date: 27 January 2021
Orbit: 783 x 1425 km, 63.4° (Epoch: 25 February)

Event Time Altitude Azimuth Distance (km) Brightness Sun altitude
Exits shadow 05:00:35 24° 216° (SW) 1,686 4.5 -22.1°
Maximum altitude 05:04:08 90° 296° (WNW) 901 3.2 -21.5°
Drops below altitude 10° 05:10:34 10° 37° (NE) 2,782 6.3 -20.3°
Sets 05:13:22 0° 38° (NE) 3,836 7.0 -19.8°
